Hourly Data Report for June 30, 2020

TORONTO CITY
ONTARIO
Current Station Operator: ECCC - MSC

43°40'00.000" N
79°24'00.000" W
112.50 m
6158355
71508
XTO

Download Data

Hourly Data (June 2020)
Hourly Data Report for June 30, 2020
TIME
LST
Temp Definition
°C
Dew Point Definition
°C
Rel Hum Definition
%
Precip. Amount Definition
mm

Wind Dir Definition
10's deg

Wind Spd Definition
km/h
Visibility Definition
km
Stn Press Definition
kPa
Hmdx Definition


Wind Chill Definition


Weather Definition


00:00 21.9 13.8 60 0.0       100.13 25   LegendNANA
01:00 22.0 13.9 60 0.0       100.14 25   LegendNANA
02:00 21.7 13.7 60 0.0       100.18 25   LegendNANA
03:00 21.4 14.8 66 0.0       100.21 25   LegendNANA
04:00 21.2 15.2 69 0.0       100.24 25   LegendNANA
05:00 20.3 15.0 71 0.0       100.28     LegendNANA
06:00 21.1 14.9 67 0.0       100.29 25   LegendNANA
07:00 22.5 14.1 59 0.0       100.32 26   LegendNANA
08:00 23.8 13.6 53 0.0       100.33 27   LegendNANA
09:00 23.9 13.4 52 0.0       100.36 27   LegendNANA
10:00 24.5 14.1 52 0.0       100.36 28   LegendNANA
11:00 23.9 13.7 53 0.0       100.34 27   LegendNANA
12:00 24.5 14.1 52 0.0       100.31 28   LegendNANA
13:00 25.0 14.3 51 0.0       100.29 29   LegendNANA
14:00 25.8 13.8 47 0.0       100.25 29   LegendNANA
15:00 26.3 14.5 48 0.0       100.19 30   LegendNANA
16:00 25.5 14.3 50 0.6       100.14 29   LegendNANA
17:00 25.7 14.4 50 0.0       100.09 29   LegendNANA
18:00 24.4 14.3 53 0.3       100.08 28   LegendNANA
19:00 24.1 14.3 54 0.0       100.09 28   LegendNANA
20:00 23.7 14.3 56 0.0       100.12 27   LegendNANA
21:00 23.1 15.0 61 0.0       100.17 27   LegendNANA
22:00 22.6 14.8 61 0.0       100.16 26   LegendNANA
23:00 21.8 15.5 67 0.0       100.17 26   LegendNANA

Notes on Data Quality.

Legend

  • E = Estimated
  • M = Missing
  • NA = Not Available*
  • [empty] = Indicates an unobserved value
Date modified: